Hoquiam, WA

1:10 AM PST on February 20, 2017 (GMT -0800)
Bowerman

Weather History for KHQM - June, 2013

Change the Weather History Date:

Wednesday, June 26, 2013

  Actual Average Record
Temperature  
Mean Temperature 61 °F 58 °F  
Max Temperature 65 °F 65 °F 84 °F (2006)
Min Temperature 57 °F 52 °F 40 °F (1971)
Degree Days  
Heating Degree Days 4 7  
Month to date heating degree days 172 217  
Since 1 June heating degree days 172 217  
Cooling Degree Days 0 0  
Month to date cooling degree days 0 0  
Year to date cooling degree days 3 1  
Since 1 June cooling degree days 0 0  
Growing Degree Days 10 (Base 50)    
Moisture  
Dew Point 57 °F    
Average Humidity 89    
Maximum Humidity 100    
Minimum Humidity 78    
Precipitation  
Precipitation 0.00 in 0.06 in 1.21 in (1982)
Month to date precipitation 101.39 2.03  
Year to date precipitation 130.97 34.95  
Sea Level Pressure  
Sea Level Pressure 29.94 in    
Wind  
Wind Speed 9 mph (ESE)    
Max Wind Speed 21 mph    
Max Gust Speed 24 mph    
Visibility 7 miles    
Events Rain    
T = Trace of Precipitation, MM = Missing Value Source: NWS Daily Summary

Daily Weather History Graph

Daily Weather History Graph

Search for Another Location

Airport or City:

Trip Planner

Search our weather history database for the weather conditions in past years. The results will help you decide how hot, cold, wet, or windy it might be!

Date:

Astronomy

Jun. 26, 2013 Rise Set
Actual Time 5:22 AM PDT 9:14 PM PDT
Civil Twilight 4:42 AM PDT 9:54 PM PDT
Nautical Twilight 3:48 AM PDT 10:48 PM PDT
Astronomical Twilight 2:27 AM PDT 12:09 AM PDT
Moon 11:22 PM PDT (6/26) 9:37 AM PDT (6/26)
Length of Visible Light 17h 11m
Length of Day
15h 52m
Waning Gibbous, 84% of the Moon is Illuminated
Jun 26
Waning Gibbous
Jun 29
Last Quarter
Jul 8
New
Jul 15
First Quarter
Jul 22
Full

Hourly Weather History & Observations

Time (PDT) Temp. Dew Point Humidity Pressure Visibility Wind Dir Wind Speed Gust Speed Precip Events Conditions
12:25 AM 57.2 °F 55.4 °F 94% 29.83 in 2.5 mi East 4.6 mph - N/A Rain Light Rain
12:53 AM 57.0 °F 55.9 °F 96% 29.84 in 4.0 mi East 5.8 mph - N/A Rain Light Rain
1:10 AM 57.2 °F 55.4 °F 94% 29.83 in 2.5 mi East 6.9 mph - N/A Rain Light Rain
1:20 AM 57.2 °F 55.4 °F 94% 29.84 in 5.0 mi East 8.1 mph - N/A Rain Light Rain
1:53 AM 57.9 °F 55.9 °F 93% 29.85 in 6.0 mi East 6.9 mph - N/A Rain Light Rain
2:53 AM 57.9 °F 55.9 °F 93% 29.85 in 10.0 mi East 9.2 mph - N/A Rain Light Rain
3:34 AM 57.2 °F 55.4 °F 94% 29.84 in 10.0 mi East 9.2 mph - N/A Rain Light Rain
3:53 AM 57.0 °F 55.9 °F 96% 29.86 in 9.0 mi ENE 8.1 mph - N/A Rain Light Rain
4:16 AM 57.2 °F 55.4 °F 94% 29.85 in 6.0 mi East 9.2 mph - N/A Rain Light Rain
4:28 AM 57.2 °F 55.4 °F 94% 29.85 in 6.0 mi ENE 6.9 mph - N/A Rain Light Rain
4:53 AM 57.0 °F 55.9 °F 96% 29.86 in 9.0 mi NE 6.9 mph - N/A   Overcast
5:53 AM 57.9 °F 55.9 °F 93% 29.87 in 10.0 mi ENE 9.2 mph - N/A   Overcast
6:40 AM 57.2 °F 55.4 °F 94% 29.87 in 1.8 mi East 10.4 mph - N/A Rain Rain
6:53 AM 57.9 °F 57.0 °F 97% 29.88 in 1.0 mi ENE 6.9 mph - N/A Rain Heavy Rain
7:00 AM 57.2 °F 57.2 °F 100% 29.87 in 2.5 mi ENE 6.9 mph - N/A Rain Light Rain
7:12 AM 57.2 °F 57.2 °F 100% 29.87 in 1.5 mi ENE 4.6 mph - N/A Rain Rain
7:26 AM 57.2 °F 57.2 °F 100% 29.87 in 3.0 mi East 8.1 mph - N/A Rain Light Rain
7:36 AM 57.2 °F 57.2 °F 100% 29.88 in 3.0 mi East 10.4 mph - N/A Rain Light Rain
7:53 AM 57.9 °F 57.0 °F 97% 29.89 in 8.0 mi East 8.1 mph - N/A Rain Light Rain
8:23 AM 60.8 °F 57.2 °F 88% 29.89 in 10.0 mi ESE 8.1 mph - N/A   Overcast
8:53 AM 61.0 °F 57.9 °F 90% 29.91 in 10.0 mi ESE 9.2 mph - N/A   Overcast
9:00 AM 60.8 °F 57.2 °F 88% 29.90 in 10.0 mi ESE 8.1 mph - N/A   Overcast
9:08 AM 60.8 °F 57.2 °F 88% 29.90 in 10.0 mi SE 8.1 mph - N/A   Overcast
9:16 AM 60.8 °F 57.2 °F 88% 29.90 in 10.0 mi SE 6.9 mph - N/A   Overcast
9:27 AM 60.8 °F 57.2 °F 88% 29.91 in 10.0 mi SE 8.1 mph - N/A   Overcast
9:53 AM 62.1 °F 57.9 °F 86% 29.92 in 10.0 mi ESE 6.9 mph - N/A   Overcast
10:09 AM 60.8 °F 57.2 °F 88% 29.91 in 1.5 mi ESE 11.5 mph - N/A Rain Heavy Rain
10:24 AM 60.8 °F 57.2 °F 88% 29.92 in 3.0 mi SE 8.1 mph - N/A Rain Light Rain
10:39 AM 62.6 °F 59.0 °F 88% 29.93 in 6.0 mi SSE 9.2 mph - N/A Rain Light Rain
10:53 AM 62.1 °F 57.9 °F 86% 29.95 in 7.0 mi SSE 12.7 mph - N/A   Overcast
10:57 AM 60.8 °F 57.2 °F 88% 29.94 in 1.8 mi South 9.2 mph - N/A Rain Rain
11:16 AM 60.8 °F 59.0 °F 94% 29.94 in 3.0 mi South 5.8 mph - N/A Rain Light Rain
11:45 AM 60.8 °F 57.2 °F 88% 29.94 in 10.0 mi SSE 9.2 mph - N/A   Overcast
11:53 AM 61.0 °F 57.9 °F 90% 29.96 in 3.0 mi SSE 10.4 mph - N/A Rain Rain
12:13 PM 62.6 °F 59.0 °F 88% 29.96 in 10.0 mi South 12.7 mph 19.6 mph N/A   Overcast
12:29 PM 62.6 °F 59.0 °F 88% 29.96 in 10.0 mi South 13.8 mph - N/A   Overcast
12:53 PM 63.0 °F 59.0 °F 87% 29.98 in 10.0 mi South 10.4 mph - N/A   Mostly Cloudy
1:53 PM 64.0 °F 57.0 °F 78% 30.00 in 10.0 mi South 16.1 mph - N/A   Overcast
2:53 PM 63.0 °F 57.0 °F 81% 30.02 in 10.0 mi SSE 17.3 mph - N/A   Overcast
3:36 PM 62.6 °F 55.4 °F 77% 30.02 in 10.0 mi SSE 16.1 mph - N/A   Overcast
3:53 PM 63.0 °F 55.9 °F 78% 30.04 in 10.0 mi SSE 18.4 mph - N/A   Overcast
4:53 PM 62.1 °F 57.0 °F 84% 30.05 in 10.0 mi SSE 9.2 mph - N/A   Overcast
5:24 PM 62.6 °F 57.2 °F 82% 30.04 in 10.0 mi SSE 8.1 mph - N/A   Overcast
5:53 PM 62.1 °F 57.0 °F 84% 30.06 in 10.0 mi SSE 11.5 mph - N/A   Overcast
6:07 PM 62.6 °F 57.2 °F 82% 30.05 in 10.0 mi SSE 9.2 mph - N/A   Overcast
6:53 PM 62.1 °F 57.0 °F 84% 30.06 in 10.0 mi SE 4.6 mph - N/A   Overcast
7:53 PM 62.1 °F 57.0 °F 84% 30.06 in 10.0 mi Calm Calm - N/A   Overcast
8:53 PM 61.0 °F 57.0 °F 87% 30.06 in 10.0 mi Calm Calm - N/A Rain Light Rain
9:53 PM 60.1 °F 57.9 °F 93% 30.06 in 10.0 mi ENE 5.8 mph - N/A   Overcast
10:01 PM 60.8 °F 57.2 °F 88% 30.05 in 10.0 mi ENE 5.8 mph - N/A   Overcast
10:53 PM 60.1 °F 57.9 °F 93% 30.06 in 10.0 mi NE 9.2 mph - N/A   Overcast
11:53 PM 60.1 °F 57.0 °F 90% 30.05 in 10.0 mi ENE 6.9 mph - N/A   Overcast